Lady's Island, SC

6:41 AM EST on December 03, 2016 (GMT -0500)
Beaufort

Weather History for KARW - October, 2012

Change the Weather History Date:

Thursday, October 18, 2012

  Actual Average (KNBC) Record (KNBC)
Temperature  
Mean Temperature 70 °F -  
Max Temperature 78 °F 76 °F 87 °F (2007)
Min Temperature 62 °F 57 °F 39 °F (1943)
Cooling Degree Days 5    
Growing Degree Days 20 (Base 50)    
Moisture  
Dew Point 65 °F    
Average Humidity 81    
Maximum Humidity 94    
Minimum Humidity 61    
Precipitation  
Precipitation 0.00 in - - ()
Sea Level Pressure  
Sea Level Pressure 29.84 in    
Wind  
Wind Speed 3 mph (South)    
Max Wind Speed 8 mph    
Max Gust Speed -    
Visibility 7 miles    
Events Rain    
Averages and records for this station are not official NWS values.
T = Trace of Precipitation, MM = Missing Value Source: NWS Daily Summary

Daily Weather History Graph

Daily Weather History Graph

Search for Another Location

Airport or City:

Trip Planner

Search our weather history database for the weather conditions in past years. The results will help you decide how hot, cold, wet, or windy it might be!

Date:

Astronomy

Oct. 18, 2012 Rise Set
Actual Time 7:28 AM EDT 6:45 PM EDT
Civil Twilight 7:04 AM EDT 7:10 PM EDT
Nautical Twilight 6:35 AM EDT 7:39 PM EDT
Astronomical Twilight 6:06 AM EDT 8:07 PM EDT
Moon 10:57 AM EDT (10/18) 9:30 PM EDT (10/18)
Length of Visible Light 12h 06m
Length of Day
11h 16m
Waxing Crescent, 14% of the Moon is Illuminated
Oct 18
Waxing Crescent
Oct 21
First Quarter
Oct 29
Full
Nov 6
Last Quarter
Nov 13
New

Hourly Weather History & Observations

Time (EDT) Temp. Dew Point Humidity Pressure Visibility Wind Dir Wind Speed Gust Speed Precip Events Conditions
12:15 AM 64.4 °F 60.8 °F 88% 29.89 in 10.0 mi NNE 3.5 mph - N/A   Mostly Cloudy
12:35 AM 64.4 °F 60.8 °F 88% 29.88 in 7.0 mi NE 5.8 mph - N/A   Mostly Cloudy
12:55 AM 68.0 °F 60.8 °F 78% 29.87 in 10.0 mi NE 8.1 mph - N/A   Scattered Clouds
1:15 AM 66.2 °F 60.8 °F 83% 29.87 in 10.0 mi NE 4.6 mph - N/A   Mostly Cloudy
1:35 AM 66.2 °F 60.8 °F 83% 29.87 in 7.0 mi NE 4.6 mph - N/A   Scattered Clouds
1:55 AM 64.4 °F 60.8 °F 88% 29.86 in 7.0 mi Calm Calm - N/A   Scattered Clouds
2:15 AM 64.4 °F 60.8 °F 88% 29.85 in 7.0 mi Calm Calm - N/A   Scattered Clouds
2:35 AM 64.4 °F 60.8 °F 88% 29.85 in 7.0 mi Calm Calm - N/A   Scattered Clouds
2:55 AM 62.6 °F 60.8 °F 94% 29.85 in 7.0 mi Calm Calm - N/A   Scattered Clouds
3:15 AM 62.6 °F 60.8 °F 94% 29.84 in 7.0 mi Calm Calm - N/A   Mostly Cloudy
3:35 AM 64.4 °F 60.8 °F 88% 29.83 in 7.0 mi NNE 3.5 mph - N/A   Overcast
3:55 AM 64.4 °F 62.6 °F 94% 29.84 in 3.0 mi Calm Calm - N/A Rain Heavy Rain
4:15 AM 66.2 °F 64.4 °F 94% 29.84 in 3.0 mi Calm Calm - N/A Rain Heavy Rain
4:35 AM 64.4 °F 62.6 °F 94% 29.84 in 4.0 mi NW 3.5 mph - N/A Rain Heavy Rain
4:55 AM 64.4 °F 62.6 °F 94% 29.84 in 7.0 mi Calm Calm - N/A Rain Light Rain
5:15 AM 66.2 °F 64.4 °F 94% 29.85 in 3.0 mi Calm Calm - N/A Rain Light Rain
5:35 AM 66.2 °F 64.4 °F 94% 29.85 in 5.0 mi Calm Calm - N/A   Overcast
5:55 AM 68.0 °F 64.4 °F 88% 29.85 in 5.0 mi Calm Calm - N/A   Overcast
6:15 AM 68.0 °F 64.4 °F 88% 29.87 in 7.0 mi Calm Calm - N/A   Overcast
6:35 AM 68.0 °F 64.4 °F 88% 29.87 in 7.0 mi Calm Calm - N/A   Overcast
6:55 AM 68.0 °F 64.4 °F 88% 29.87 in 5.0 mi Calm Calm - N/A   Overcast
7:35 AM 68.0 °F 64.4 °F 88% 29.88 in 7.0 mi Calm Calm - N/A   Overcast
7:55 AM 68.0 °F 64.4 °F 88% 29.88 in 4.0 mi Calm Calm - N/A   Overcast
8:15 AM 68.0 °F 66.2 °F 94% 29.89 in 7.0 mi Calm Calm - N/A   Overcast
8:35 AM 68.0 °F 66.2 °F 94% 29.89 in 5.0 mi Calm Calm - N/A   Overcast
8:55 AM 69.8 °F 66.2 °F 88% 29.89 in 7.0 mi Calm Calm - N/A   Overcast
9:15 AM 69.8 °F 66.2 °F 88% 29.89 in 7.0 mi Calm Calm - N/A   Scattered Clouds
9:35 AM 69.8 °F 68.0 °F 94% 29.89 in 7.0 mi Calm Calm - N/A   Scattered Clouds
9:55 AM 71.6 °F 68.0 °F 88% 29.88 in 7.0 mi Calm Calm - N/A   Scattered Clouds
10:15 AM 73.4 °F 68.0 °F 83% 29.88 in 5.0 mi Calm Calm - N/A   Haze
10:35 AM 73.4 °F 68.0 °F 83% 29.88 in 5.0 mi Calm Calm - N/A   Haze
10:55 AM 75.2 °F 68.0 °F 78% 29.88 in 7.0 mi Calm Calm - N/A   Scattered Clouds
11:15 AM 77.0 °F 64.4 °F 65% 29.88 in 7.0 mi Calm Calm - N/A   Scattered Clouds
11:35 AM 77.0 °F 64.4 °F 65% 29.87 in 7.0 mi South 4.6 mph - N/A   Scattered Clouds
11:55 AM 77.0 °F 64.4 °F 65% 29.86 in 7.0 mi SSW 4.6 mph - N/A   Scattered Clouds
12:15 PM 77.0 °F 64.4 °F 65% 29.85 in 7.0 mi Calm Calm - N/A   Scattered Clouds
12:35 PM 77.0 °F 66.2 °F 69% 29.86 in 7.0 mi South 4.6 mph - N/A   Scattered Clouds
12:55 PM 77.0 °F 64.4 °F 65% 29.85 in 7.0 mi SSE 5.8 mph - N/A   Scattered Clouds
1:15 PM 78.8 °F 64.4 °F 61% 29.84 in 7.0 mi SE 4.6 mph - N/A   Clear
1:35 PM 77.0 °F 64.4 °F 65% 29.83 in 7.0 mi South 4.6 mph - N/A   Scattered Clouds
1:55 PM 77.0 °F 64.4 °F 65% 29.82 in 7.0 mi South 5.8 mph - N/A   Scattered Clouds
2:15 PM 77.0 °F 64.4 °F 65% 29.82 in 7.0 mi South 5.8 mph - N/A   Scattered Clouds
2:35 PM 77.0 °F 64.4 °F 65% 29.81 in 7.0 mi South 5.8 mph - N/A   Scattered Clouds
2:55 PM 78.8 °F 64.4 °F 61% 29.80 in 7.0 mi SE 5.8 mph - N/A   Mostly Cloudy
3:15 PM 78.8 °F 66.2 °F 65% 29.81 in 7.0 mi South 5.8 mph - N/A   Mostly Cloudy
3:35 PM 78.8 °F 64.4 °F 61% 29.80 in 5.0 mi SSW 5.8 mph - N/A   Haze
3:55 PM 77.0 °F 64.4 °F 65% 29.79 in 7.0 mi South 4.6 mph - N/A   Clear
4:15 PM 77.0 °F 64.4 °F 65% 29.80 in 5.0 mi SSE 5.8 mph - N/A   Haze
4:35 PM 75.2 °F 64.4 °F 69% 29.80 in 7.0 mi South 5.8 mph - N/A   Clear
4:55 PM 75.2 °F 64.4 °F 69% 29.81 in 5.0 mi SSW 4.6 mph - N/A   Haze
5:15 PM 73.4 °F 64.4 °F 73% 29.81 in 7.0 mi South 4.6 mph - N/A   Clear
5:35 PM 73.4 °F 66.2 °F 78% 29.81 in 7.0 mi South 6.9 mph - N/A   Clear
5:55 PM 73.4 °F 64.4 °F 73% 29.81 in 7.0 mi South 5.8 mph - N/A   Clear
6:15 PM 73.4 °F 64.4 °F 73% 29.82 in 7.0 mi South 5.8 mph - N/A   Clear
6:35 PM 71.6 °F 66.2 °F 83% 29.82 in 7.0 mi South 4.6 mph - N/A   Clear
6:55 PM 71.6 °F 66.2 °F 83% 29.82 in 7.0 mi South 3.5 mph - N/A   Clear
7:15 PM 71.6 °F 66.2 °F 83% 29.82 in 7.0 mi SSW 3.5 mph - N/A   Clear
7:55 PM 71.6 °F 68.0 °F 88% 29.82 in 7.0 mi Calm Calm - N/A   Clear
8:15 PM 71.6 °F 66.2 °F 83% 29.83 in 7.0 mi South 4.6 mph - N/A   Clear
8:35 PM 71.6 °F 66.2 °F 83% 29.83 in 7.0 mi Calm Calm - N/A   Clear
8:55 PM 71.6 °F 66.2 °F 83% 29.83 in 7.0 mi Calm Calm - N/A   Clear
9:15 PM 71.6 °F 66.2 °F 83% 29.83 in 7.0 mi Calm Calm - N/A   Clear
9:35 PM 69.8 °F 68.0 °F 94% 29.83 in 7.0 mi Calm Calm - N/A   Clear
9:55 PM 69.8 °F 68.0 °F 94% 29.83 in 7.0 mi South 3.5 mph - N/A   Clear
10:35 PM 71.6 °F 68.0 °F 88% 29.83 in 7.0 mi Calm Calm - N/A   Clear
10:55 PM 71.6 °F 66.2 °F 83% 29.83 in 10.0 mi Calm Calm - N/A   Clear
11:15 PM 71.6 °F 66.2 °F 83% 29.83 in 7.0 mi Calm Calm - N/A   Clear
11:55 PM 71.6 °F 68.0 °F 88% 29.83 in 7.0 mi Calm Calm - N/A   Scattered Clouds